KI6IKQ Weather Reports


Display with metric or nautical units.
time (UTC)temp
F
wind
direction
speed
MPH
gust
MPH
rain 1hr
in
rain 24hr
in
rain mn
in
humidity
%
barometer
mb
20260506134503 55 139 1.0 4.0 0.00 0.01 0.00 89 1019.6
20260506133603 55 143 0.0 2.0 0.00 0.01 0.00 89 1019.5
20260506132703 55 0 0.0 0.0 0.00 0.01 0.00 89 1019.5
20260506131803 55 0 0.0 0.0 0.00 0.01 0.00 89 1019.4
20260506130903 55 0 0.0 0.0 0.00 0.01 0.00 89 1019.5
20260506130003 55 0 0.0 0.0 0.00 0.01 0.00 89 1019.4
20260506125403 55 0 0.0 0.0 0.00 0.01 0.00 89 1019.4
20260506124524 55 0 0.0 0.0 0.00 0.01 0.00 89 1019.4
20260506123603 55 0 0.0 0.0 0.00 0.01 0.00 89 1019.2
20260506122703 55 0 0.0 0.0 0.00 0.01 0.00 89 1019.1
20260506121803 54 312 0.0 1.0 0.00 0.01 0.00 89 1019.1
20260506120903 54 312 0.0 2.0 0.00 0.01 0.00 90 1019.1
20260506120004 54 312 0.0 2.0 0.00 0.01 0.00 90 1019.0
20260506115403 54 312 0.0 2.0 0.00 0.01 0.00 89 1019.0
20260506114503 54 312 0.0 1.0 0.00 0.01 0.00 89 1019.0
20260506113603 54 312 0.0 1.0 0.00 0.01 0.00 89 1019.0
20260506112703 53 0 0.0 0.0 0.00 0.01 0.00 89 1018.9
20260506111806 53 0 0.0 0.0 0.00 0.01 0.00 89 1018.9
20260506110903 54 0 0.0 0.0 0.00 0.01 0.00 89 1018.6
20260506110003 54 0 0.0 0.0 0.00 0.01 0.00 89 1018.6
20260506105403 54 312 1.0 2.0 0.00 0.01 0.00 89 1018.6
20260506104503 54 312 1.0 4.0 0.00 0.01 0.00 89 1018.5
20260506103603 54 312 1.0 3.0 0.00 0.01 0.00 89 1018.5
20260506102703 53 312 1.0 3.0 0.00 0.01 0.00 89 1018.5
20260506101803 53 313 0.0 2.0 0.00 0.01 0.00 88 1018.5
20260506100903 53 312 1.0 4.0 0.00 0.01 0.00 88 1018.3
20260506100003 53 301 1.0 4.0 0.00 0.01 0.00 88 1018.3
20260506095403 53 299 1.0 4.0 0.00 0.01 0.00 88 1018.3
20260506094503 53 318 0.0 2.0 0.00 0.01 0.00 88 1018.0
20260506093603 53 313 1.0 4.0 0.00 0.01 0.00 88 1018.0
20260506092724 53 294 1.0 4.0 0.00 0.01 0.00 88 1017.9
20260506091803 53 294 0.0 2.0 0.00 0.01 0.00 88 1018.0
20260506090903 53 294 0.0 1.0 0.00 0.01 0.00 88 1018.0
20260506090024 53 294 0.0 2.0 0.00 0.01 0.00 88 1018.1
20260506085403 53 294 0.0 1.0 0.00 0.01 0.00 88 1018.1
20260506084503 52 294 0.0 1.0 0.00 0.01 0.00 87 1018.3
20260506083624 52 0 0.0 0.0 0.00 0.01 0.00 86 1018.3
20260506082703 53 0 0.0 0.0 0.00 0.01 0.00 85 1018.4
20260506081824 53 0 0.0 0.0 0.00 0.01 0.00 85 1018.5
20260506080903 53 0 0.0 0.0 0.00 0.01 0.00 85 1018.4
20260506072703 54 294 0.0 1.0 0.00 0.05 0.00 85 1018.1
20260506071803 55 294 0.0 3.0 0.00 0.05 0.00 85 1018.1
20260506070903 55 289 1.0 3.0 0.00 0.05 0.00 85 1017.8
20260506061824 55 292 2.0 4.0 0.00 0.05 0.05 85 1017.3
20260506060924 55 265 1.0 3.0 0.00 0.05 0.05 84 1017.1
20260506050924 57 250 1.0 4.0 0.00 0.05 0.05 81 1016.6
20260506044503 58 249 1.0 3.0 0.00 0.05 0.05 80 1016.5
20260506043603 58 249 0.0 3.0 0.00 0.05 0.05 79 1016.3
20260506042703 59 249 0.0 2.0 0.00 0.05 0.05 79 1016.1
20260506041803 59 250 1.0 3.0 0.00 0.05 0.05 79 1016.1
20260506040903 59 250 1.0 3.0 0.00 0.05 0.05 78 1016.0
20260506040003 60 250 1.0 3.0 0.00 0.05 0.05 77 1015.9
20260506035424 60 250 1.0 4.0 0.00 0.05 0.05 77 1015.9
20260506034503 61 250 1.0 4.0 0.00 0.05 0.05 76 1015.7
20260506033603 61 249 1.0 4.0 0.00 0.05 0.05 76 1015.6
20260506032703 61 248 1.0 5.0 0.00 0.05 0.05 75 1015.6
20260506031803 62 243 1.0 5.0 0.00 0.05 0.05 75 1015.5
20260506030903 62 249 1.0 4.0 0.00 0.05 0.05 75 1015.2
20260506030003 62 272 2.0 5.0 0.00 0.05 0.05 74 1015.2
20260506025403 62 265 2.0 4.0 0.00 0.05 0.05 74 1015.2
20260506024503 62 274 2.0 7.0 0.01 0.05 0.05 74 1015.1
20260506023603 63 264 2.0 6.0 0.01 0.05 0.05 73 1015.0
20260506022703 63 250 2.0 6.0 0.01 0.05 0.05 73 1014.9
20260506021803 63 245 2.0 6.0 0.01 0.05 0.05 72 1014.8
20260506020903 63 242 2.0 4.0 0.01 0.05 0.05 72 1014.8
20260506020024 64 251 2.0 7.0 0.01 0.05 0.05 71 1014.8
20260506015403 64 270 3.0 9.0 0.01 0.05 0.05 71 1014.7
20260506014503 64 275 3.0 7.0 0.00 0.04 0.04 71 1014.7
20260506013603 64 253 2.0 7.0 0.00 0.04 0.04 71 1014.8
20260506012703 64 270 2.0 6.0 0.00 0.04 0.04 72 1014.8
20260506011803 64 254 2.0 5.0 0.00 0.04 0.04 71 1014.8
20260506010903 64 261 3.0 7.0 0.00 0.04 0.04 71 1014.8
20260506010003 65 265 2.0 7.0 0.00 0.04 0.04 71 1015.0
20260506005403 65 270 2.0 7.0 0.00 0.04 0.04 70 1015.0
20260506004503 65 255 3.0 7.0 0.00 0.04 0.04 70 1015.0
20260506003603 65 254 2.0 7.0 0.00 0.04 0.04 69 1015.0
20260506002703 66 236 2.0 5.0 0.00 0.04 0.04 69 1014.9
20260506001803 66 236 2.0 9.0 0.00 0.04 0.04 70 1014.9
20260506000903 65 230 2.0 8.0 0.00 0.04 0.04 70 1014.7
20260506000003 65 218 2.0 5.0 0.00 0.04 0.04 71 1014.6
20260505235403 64 235 2.0 4.0 0.00 0.04 0.04 72 1014.7
20260505234503 64 233 2.0 8.0 0.00 0.04 0.04 72 1014.8
20260505233606 64 268 3.0 8.0 0.00 0.04 0.04 73 1014.8
20260505232703 64 255 2.0 7.0 0.00 0.04 0.04 72 1014.8
20260505231803 64 256 2.0 8.0 0.00 0.04 0.04 73 1014.8
20260505230903 64 258 2.0 6.0 0.00 0.04 0.04 74 1014.8
20260505230003 63 258 2.0 8.0 0.00 0.04 0.04 74 1014.8
20260505225403 63 261 3.0 8.0 0.00 0.04 0.04 74 1014.7
20260505224503 63 255 2.0 7.0 0.00 0.04 0.04 74 1014.8
20260505223603 63 254 2.0 5.0 0.00 0.04 0.04 74 1014.9
20260505222703 63 249 2.0 6.0 0.00 0.04 0.04 74 1014.9
20260505221804 63 221 2.0 5.0 0.00 0.04 0.04 75 1014.9
20260505220903 63 266 2.0 7.0 0.00 0.04 0.04 76 1015.0
20260505220003 62 271 2.0 6.0 0.00 0.04 0.04 77 1015.0
20260505215424 62 253 2.0 5.0 0.00 0.04 0.04 76 1015.0
20260505214503 62 257 2.0 9.0 0.00 0.04 0.04 77 1015.2
20260505213603 62 283 2.0 7.0 0.00 0.04 0.04 77 1015.2
20260505212703 62 245 1.0 4.0 0.00 0.04 0.04 77 1015.2
20260505211803 62 252 2.0 4.0 0.00 0.04 0.04 77 1015.3
20260505210903 62 279 2.0 6.0 0.00 0.04 0.04 78 1015.3
20260505210003 61 250 2.0 5.0 0.00 0.04 0.04 77 1015.2
20260505205403 62 257 2.0 6.0 0.00 0.04 0.04 77 1015.3
20260505204503 62 245 2.0 7.0 0.00 0.04 0.04 77 1015.4
20260505203603 62 234 1.0 7.0 0.00 0.04 0.04 77 1015.5
20260505202703 62 266 2.0 7.0 0.00 0.04 0.04 77 1015.5
20260505201803 62 275 2.0 8.0 0.00 0.04 0.04 78 1015.5
20260505200903 62 274 2.0 4.0 0.00 0.04 0.04 78 1015.5
20260505200003 62 294 2.0 5.0 0.00 0.04 0.04 78 1015.5
20260505195403 61 267 2.0 6.0 0.00 0.04 0.04 78 1015.6
20260505194503 61 249 2.0 5.0 0.00 0.04 0.04 78 1015.6
20260505193603 61 315 2.0 5.0 0.00 0.04 0.04 79 1015.6
20260505192703 60 335 2.0 8.0 0.00 0.04 0.04 81 1015.7
20260505191803 60 288 2.0 5.0 0.00 0.04 0.04 82 1015.7
20260505190903 60 277 0.0 3.0 0.00 0.04 0.04 81 1015.7
20260505190004 60 277 1.0 4.0 0.00 0.04 0.04 82 1015.7
20260505185403 59 278 2.0 4.0 0.00 0.04 0.04 82 1015.7
20260505184503 59 274 2.0 6.0 0.00 0.04 0.04 83 1015.5
20260505183603 59 261 2.0 6.0 0.00 0.04 0.04 84 1015.5
20260505182703 58 278 2.0 6.0 0.00 0.04 0.04 83 1015.5
20260505181803 58 290 3.0 7.0 0.00 0.04 0.04 83 1015.5
20260505180903 58 286 3.0 8.0 0.00 0.04 0.04 83 1015.3
20260505180003 58 273 3.0 8.0 0.00 0.04 0.04 83 1015.3
20260505175424 58 269 2.0 8.0 0.00 0.04 0.04 83 1015.2
20260505174503 58 259 2.0 5.0 0.00 0.04 0.04 83 1015.1
20260505173603 57 259 2.0 7.0 0.00 0.04 0.04 83 1015.1
20260505172703 57 268 2.0 7.0 0.00 0.04 0.04 84 1015.1
20260505171803 57 241 1.0 4.0 0.00 0.04 0.04 84 1015.1
20260505170903 57 258 2.0 4.0 0.00 0.04 0.04 84 1015.2
20260505170003 57 260 1.0 4.0 0.00 0.04 0.04 84 1015.2
20260505165403 57 253 1.0 5.0 0.00 0.04 0.04 84 1015.1
20260505164503 57 246 1.0 4.0 0.00 0.04 0.04 85 1014.9
20260505163603 56 244 2.0 6.0 0.00 0.04 0.04 85 1015.0
20260505162703 56 251 1.0 4.0 0.00 0.04 0.04 85 1015.0
20260505161824 56 246 1.0 4.0 0.00 0.04 0.04 86 1015.0
20260505160924 56 243 1.0 4.0 0.00 0.04 0.04 86 1015.0
20260505152703 55 238 0.0 3.0 0.00 0.04 0.04 87 1014.8
20260505151803 54 230 0.0 2.0 0.00 0.04 0.04 88 1014.7
20260505150903 54 250 1.0 3.0 0.00 0.04 0.04 88 1014.7